Regional Weather Roundup
Issued by NWS

Home | Current Version | Previous Version | Text Only | Print | Product List | Glossary Off
Versions: 1 2 3 4 5 6 7 8 9 10 11 12 13 14 15 16 17 18 19 20 21 22 23 24 25 26 27 28 29 30 31 32 33 34 35 36 37 38 39 40 41 42 43 44 45 46 47 48 49 50

000
ASUS43 KDMX 270307
RWRIA

WEATHER ROUNDUP FOR IOWA
NATIONAL WEATHER SERVICE DES MOINES IA
900 PM CST FRI DEC 26 2014

NOTE: "FAIR" INDICATES FEW OR NO CLOUDS BELOW 12,000 FEET WITH NO
SIGNIFICANT WEATHER AND/OR OBSTRUCTIONS TO VISIBILITY.

* - THESE STATIONS ARE NOT NWS STATIONS...THUS NOT UNDER NWS
QUALITY CONTROL.  THEY ALSO DO NOT REPORT WEATHER SUCH
AS PRECIPITATION OR FOG.

IAZ001>003-012>014-020>022-031>034-043>046-270400-
   NORTHWEST IOWA

CITY           SKY/WX    TMP DP  RH WIND       PRES   REMARKS
CARROLL *      CLOUDY    32  32 100 N15       29.99F FOG     WCI  22
CHEROKEE *     LGT SNOW  29  28  95 N9G20     30.01F WCI  20
DENISON *      CLOUDY    30  30 100 NE10G20   29.97S FOG     WCI  21
LE MARS *      LGT SNOW  27  27 100 N15       30.05S WCI  15
ORANGE CITY *  LGT SNOW  27  25  93 N8G16     30.03F WCI  18
SHELDON *      MIX PCPN  27  27 100 N17       30.03F WCI  14
SIOUX CITY     LGT SNOW  29  25  85 N18       30.04F FOG     WCI  16
SPENCER        CLOUDY    29  24  82 N15       30.03F WCI  18
STORM LAKE *   CLOUDY    28  28 100 NE17G25   29.99F FOG     WCI  16
$$

IAZ055>058-069>071-079>083-090>094-270400-
   SOUTHWEST IOWA

CITY           SKY/WX    TMP DP  RH WIND       PRES   REMARKS
ATLANTIC *     CLOUDY    32  32 100 NE8       29.97F FOG     WCI  25
AUDUBON *      CLOUDY    30  27  86 N12       29.97F FOG     WCI  21
CLARINDA *     CLOUDY    34  34 100 NE3       30.01R FOG
COUNCIL BLFS * MIX PCPN  32  32 100 N9        29.99R WCI  24
CRESTON *      FOG       32  32 100 NE8       29.96F VSB 1/4 WCI  25
HARLAN  *      CLOUDY    32  32 100 NE9       30.02R FOG     WCI  24
LAMONI         CLOUDY    35  32  88 N6        29.97R WCI  30
RED OAK *      CLOUDY    34  34 100 N5        30.00R FOG     WCI  30
SHENANDOAH *   CLOUDY    34  34 100 NE6       30.02R FOG     WCI  29
$$

IAZ047>049-059>061-072>074-084-270400-
   CENTRAL IOWA

CITY           SKY/WX    TMP DP  RH WIND       PRES   REMARKS
AMES           CLOUDY    34  31  88 N6        29.97S FOG     WCI  29
ANKENY *       CLOUDY    34  34 100 CALM      29.98R FOG
CHARITON *     CLOUDY    34  34 100 N7        29.97R WCI  28
DES MOINES     CLOUDY    35  32  88 N3        29.98S
GRINNELL*      CLOUDY    34  33  96 N5        29.98R FOG     WCI  30
KNOXVILLE *    CLOUDY    36  32  87 N5        29.96F WCI  32
MARSHALLTOWN   CLOUDY    34  32  92 NE6       29.96S FOG     WCI  29
PELLA *        CLOUDY    35  33  92 CALM      29.98F
PERRY *        CLOUDY    33  33 100 N6        29.99S FOG     WCI  28
$$

IAZ004>006-015-016-023>025-035-036-270400-
   NORTH CENTRAL IOWA

CITY           SKY/WX    TMP DP  RH WIND       PRES   REMARKS
ALGONA *       CLOUDY    30  30 100 N17       30.01F FOG     WCI  18
CLARION *      LGT SNOW  32  32 100 N10       29.98F WCI  24
ESTHERVILLE    CLOUDY    27  25  92 N16       30.02F WCI  15
FORT DODGE *   CLOUDY    30  28  93 N13       29.99F WCI  20
MASON CITY     LGT SNOW  31  30  96 N9        30.01S FOG     WCI  23
FOREST CITY *  LGT SNOW  32  30  93 N9        30.01R WCI  24
IOWA FALLS *   CLOUDY    33  32  96 NE6       29.97S FOG     WCI  27
$$

IAZ007>011-017>019-026>030-037>042-050>054-066-270400-
   NORTHEAST IOWA

CITY           SKY/WX    TMP DP  RH WIND       PRES   REMARKS
CEDAR RAPIDS   CLOUDY    39  35  86 CALM      29.95F
CHARLES CITY * CLOUDY    34  34 100 NE8       29.98F FOG     WCI  27
CLINTON *      CLOUDY    41  36  81 NE7       30.00S
DECORAH *      CLOUDY    34  32  93 N6        29.97F WCI  29
DUBUQUE        CLOUDY    38  34  85 NE3       29.96F
MONTICELLO *   CLOUDY    37  37 100 CALM      29.98R
OELWEIN *      CLOUDY    34  32  93 NE9       29.96F WCI  26
WATERLOO       CLOUDY    34  33  96 N5        29.96F WCI  30
$$

IAZ064-065-067-068-078-270400-
   EAST CENTRAL IOWA

CITY           SKY/WX    TMP DP  RH WIND       PRES   REMARKS
DAVENPORT      CLOUDY    42  36  79 E6        29.98S
IOWA CITY      CLOUDY    42  35  76 NE5       29.98F
MT. PLEASANT * DRIZZLE   44  40  87 NW5       29.96R
MUSCATINE *    CLOUDY    45  37  76 CALM      29.98R
QUAD CITIES    CLOUDY    45  39  79 E6        29.96F
$$

IAZ062-063-075>077-085>089-095>099-270400-
   SOUTHEAST IOWA

CITY           SKY/WX    TMP DP  RH WIND       PRES   REMARKS
BURLINGTON     CLOUDY    49  42  77 E6        29.94S
FAIRFIELD *    MIX PCPN  41  37  87 N6        29.97R
FORT MADISON *   N/A     52  45  76 SE3       29.95F
KEOKUK *       CLOUDY    50  45  81 SE7       29.94S
OSKALOOSA *    DRIZZLE   37  34  92 W7        29.98R WCI  31
CENTERVILLE *  CLOUDY    36  36 100 N5        29.97F WCI  32
OTTUMWA        LGT RAIN  37  35  92 W3        29.96F FOG
WASHINGTON *   CLOUDY    43  39  87 N6        29.96S
$$

ABBREVIATIONS USED IN REMARKS
   TC - TEMPERATURES IN CELSIUS
  WCI - WIND CHILL INDEX
   HX - HEAT INDEX
  VSB - VISIBILITY
$$



USA.gov is the U.S. government's official web portal to all federal, state and local government web resources and services.